Home > Weather > Hadera > Past weeks

Flag for Israel Past Weather in Hadera, Israel — Yesterday and Last 2 Weeks

Now
77 °F

Clear.


Feels Like: 78 °F
Forecast: 77 / 87 °F
Wind: 6 mph from South

Location: Ben Gurion International Airport

Current Time: Jul 26, 2016 at 3:49:56 AM

Latest Report: Jul 26, 2016 at 3:20 AM


Visibility: 10 mi

Pressure: 29.71 "Hg

Humidity: 83%

Dew Point: 72 °F

Location of HaderaLocation

Past Weather in Hadera — Graph

°F

Hadera Temperature Yesterday

Maximum temperature yesterday: 90 °F (at 11:50 AM)
Minimum temperature yesterday: 79 °F (at 1:20 AM)
Average temperature yesterday: 83 °F

High & Low Weather Summary for the Past Weeks

 TemperatureHumidityPressure
High91 °F (Jul 13, 10:20 AM)89% (Jul 11, 3:20 AM)29.89 "Hg (Jul 11, 3:20 AM)
Low73 °F (Jul 22, 5:20 AM)33% (Jul 21, 4:50 PM)29.65 "Hg (Jul 19, 11:20 AM)
Average83 °F64%29.75 "Hg
* Reported Jul 11 2:20 AM — Jul 26 2:20 AM, Hadera, Weather by CustomWeather, © 2016

Note: Actual official high and low records may vary slightly from our data, if they occured in-between our weather recording intervals... More about our weather records

Advertising

Hadera Weather History for the Previous 24 Hours

Scroll right to see more
 ConditionsComfort  
Time TempWeatherWind HumidityBarometerVisibility
2:20 AM
Tue, Jul 26
77 °FClear.5 mph83%29.71 "Hg10 mi
1:50 AM79 °FClear.5 mph84%29.71 "Hg10 mi
1:20 AM79 °FClear.6 mph84%29.71 "Hg10 mi
12:50 AM79 °FClear.5 mph84%29.71 "Hg10 mi
12:20 AM79 °FClear.5 mph84%29.71 "Hg10 mi
11:20 PM
Mon, Jul 25
81 °FClear.3 mph79%29.71 "Hg10 mi
10:50 PM81 °FClear.2 mph79%29.71 "Hg10 mi
10:20 PM81 °FClear.3 mph79%29.71 "Hg10 mi
9:50 PM81 °FClear.3 mph79%29.71 "Hg10 mi
9:20 PM82 °FClear.2 mph74%29.71 "Hg10 mi
8:50 PM82 °FClear.5 mph74%29.71 "Hg10 mi
8:20 PM82 °FSunny.5 mph74%29.71 "Hg10 mi
7:50 PM84 °FSunny.6 mph70%29.68 "Hg10 mi
7:20 PM84 °FSunny.7 mph70%29.68 "Hg10 mi
6:50 PM86 °FSunny.7 mph66%29.68 "Hg10 mi
6:20 PM86 °FSunny.9 mph66%29.68 "Hg10 mi
5:50 PM86 °FPassing clouds.9 mph66%29.68 "HgN/A
5:20 PM88 °FPassing clouds.9 mph62%29.65 "HgN/A
4:50 PM88 °FPassing clouds.9 mph62%29.65 "HgN/A
4:20 PM88 °FPassing clouds.12 mph62%29.65 "HgN/A
3:50 PM88 °FPassing clouds.10 mph62%29.65 "HgN/A
3:20 PM88 °FPassing clouds.10 mph62%29.65 "HgN/A
2:50 PM88 °FPassing clouds.10 mph62%29.65 "HgN/A
2:20 PM90 °FPassing clouds.9 mph59%29.65 "HgN/A
1:50 PM88 °FSunny.13 mph62%29.65 "Hg10 mi
1:20 PM88 °FPassing clouds.13 mph62%29.65 "HgN/A
12:50 PM88 °FSunny.13 mph59%29.65 "Hg10 mi
12:20 PM88 °FSunny.13 mph59%29.65 "Hg10 mi
11:50 AM90 °FSunny.13 mph55%29.65 "Hg10 mi
11:20 AM88 °FPassing clouds.10 mph59%29.65 "HgN/A
10:50 AM88 °FPassing clouds.8 mph59%29.65 "HgN/A
10:20 AM88 °FPassing clouds.7 mph59%29.65 "HgN/A
9:50 AM86 °FPassing clouds.9 mph62%29.68 "HgN/A
9:20 AM84 °FScattered clouds.8 mph66%29.68 "HgN/A
8:50 AM82 °FScattered clouds.8 mph70%29.68 "HgN/A
8:20 AM82 °FPassing clouds.9 mph74%29.68 "HgN/A
7:50 AM81 °FPassing clouds.9 mph79%29.68 "HgN/A
7:20 AM79 °FScattered clouds.8 mph84%29.68 "HgN/A
6:50 AM79 °FPassing clouds.7 mph84%29.65 "HgN/A
6:20 AM79 °FPartly cloudy.7 mph79%29.65 "HgN/A
5:50 AM79 °FPassing clouds.7 mph79%29.65 "Hg6 mi
5:20 AM79 °FPassing clouds.7 mph84%29.65 "HgN/A
4:50 AM79 °FPassing clouds.7 mph79%29.65 "HgN/A
4:20 AM79 °FPassing clouds.8 mph79%29.65 "HgN/A
3:50 AM79 °FPassing clouds.6 mph79%29.65 "HgN/A
3:20 AM79 °FPassing clouds.6 mph79%29.65 "HgN/A
Weather by CustomWeather, © 2016

See weather overviewHow to use our weather pages